Regional Weather Roundup
Issued by NWS

Home | Current Version | Previous Version | Graphics & Text | Print | Product List | Glossary On
Versions: 1 2 3 4 5 6 7 8 9 10 11 12 13 14 15 16 17 18 19 20 21 22 23 24 25 26 27 28 29 30 31 32 33 34 35 36 37 38 39 40 41 42 43 44 45 46 47 48 49 50
000
ASUS43 KMPX 230801
RWRMN
WEATHER ROUNDUP FOR MINNESOTA
NATIONAL WEATHER SERVICE TWIN CITIES/CHANHASSEN MN
300 AM CDT WED AUG 23 2017


NOTE: "FAIR" INDICATES FEW OR NO CLOUDS BELOW 12,000 FEET WITH NO
SIGNIFICANT WEATHER AND/OR OBSTRUCTIONS TO VISIBILITY. N/A MEANS
CURRENT SKY AND/OR WEATHER CONDITIONS ARE NOT AVAILABLE.

MNZ060>063-068>070-230900-
   Twin Cities Metro

CITY           SKY/WX    TMP DP  RH WIND       PRES   REMARKS
TWIN CITIES    CLEAR     60  49  66 W5        30.07R
ST PAUL        CLEAR     58  52  80 CALM      30.07R
CRYSTAL        CLEAR     57  47  69 W6        30.05R
BLAINE         CLEAR     57  48  72 W5        30.06R
LAKEVILLE      CLEAR     54  50  87 W3        30.08R
EDEN PRAIRIE   CLEAR     60  51  72 NW7       30.07R
SOUTH ST PAUL  CLEAR     57  51  79 W3        30.07R
LAKE ELMO      FAIR      52  50  93 CALM      30.07R
$$
MNZ001>005-007-008-013>017-022>024-027-028-230900-
   Northwest Minnesota

CITY           SKY/WX    TMP DP  RH WIND       PRES   REMARKS
BEMIDJI        CLEAR     46  45  93 W6        30.07S
HALLOCK        CLEAR     45  45 100 CALM      30.08S
ROSEAU         CLEAR     50  45  81 CALM      30.08R
WARROAD        CLEAR     48  46  93 NW3       30.07S
CROOKSTON      CLEAR     46  45  93 NW3       30.09S
FOSSTON        CLEAR     43  39  87 CALM      30.09S
DETROIT LAKES  CLEAR     54  46  76 CALM      30.11R
MOORHEAD       CLEAR     50  45  81 CALM      30.11R
PARK RAPIDS    CLEAR     48  45  89 CALM      30.09R
MAHNOMEN       FAIR      48  45  89 CALM      30.09S
$$
MNZ006-009>011-018-025>026-230900-
   North Central Minnesota

CITY           SKY/WX    TMP DP  RH WIND       PRES   REMARKS
BAUDETTE       CLEAR     49  47  93 W3        30.06R
FLAG ISLAND      N/A     55  50  82 N3        30.05R
INTL FALLS     CLOUDY    49  47  93 CALM      30.04R
WASKISH        CLEAR     54  52  94 NW5       30.06S
BIG FORK       CLEAR     48  46  93 CALM      30.05S
LONGVILLE      CLEAR     52  48  87 CALM      30.07R
GRAND RAPIDS   CLEAR     50  48  93 CALM      30.07R
CRANE LAKE     CLOUDY    52  50  93 CALM      30.04R
ORR            MOCLDY    52  48  87 NW6       30.01R
COOK           PTCLDY    46  46 100 CALM      30.04R
WALKER         FAIR      48  47  97 W5        30.08R
$$
MNZ012-019>021-037-230900-
   Northeast Minnesota

CITY           SKY/WX    TMP DP  RH WIND       PRES   REMARKS
DULUTH         CLEAR     50  49  96 NW8       30.02R
ELY            CLEAR     48  48 100 NW5       30.01R
HIBBING        CLEAR     46  46 100 CALM      30.03R
EVELETH        CLEAR     53  47  81 NW6       30.03S
DULUTH HARBOR  CLEAR     61  54  77 NW14      30.01S
SILVER BAY     CLEAR     55  52  88 NW7       29.96S
GRAND MARAIS     N/A     55  51  86 SW5       29.94R
$$
MNZ029>031-032-039>041-046>048-054>057-064-230900-
   West Central Minnesota

CITY           SKY/WX    TMP DP  RH WIND       PRES   REMARKS
FERGUS FALLS   CLEAR     52  46  82 CALM      30.11R
WHEATON        CLEAR     52  46  82 W3        30.12S
ELBOW LAKE     FAIR      53  50  92 CALM      30.11S
WADENA         CLEAR     48  45  87 CALM      30.09R
GLENWOOD       CLEAR     52  48  87 W6        30.10S
APPLETON       CLEAR     52  48  87 W5        30.11R
BENSON         CLEAR     46  45  93 CALM      30.12S
ORTONVILLE     CLEAR     54  48  82 MISG      30.11S
MADISON        CLEAR     54  54 100 W3        30.12R
WILLMAR        FAIR      52  50  93 CALM      30.12R
$$
MNZ033>034-036-042>043-049>051-058-059-230900-
   Central Minnesota

CITY           SKY/WX    TMP DP  RH WIND       PRES   REMARKS
ST CLOUD       CLEAR     53  48  83 NW3       30.08R
SAUK CENTRE    FAIR      50  48  94 CALM      30.10S
PAYNESVILLE    CLEAR     49  48  98 W6        30.10S
AITKIN           N/A     45  43  93 CALM      30.05R FOG
PINE RIVER     CLEAR     50  46  87 W3        30.11R
BRAINERD       CLEAR     49  48  97 CALM      30.07S
STAPLES        CLEAR     48  45  87 CALM      30.09R
LONG PRAIRIE   FAIR      50  46  87 CALM      30.10R
LITTLE FALLS   CLEAR     46  43  87 CALM      30.08S
LITCHFIELD     CLEAR     57  54  88 W3        30.10R
BUFFALO        CLEAR     56  49  79 CALM      30.09R
MAPLE LAKE     CLEAR     56  50  80 CALM      30.09R
HUTCHINSON     CLEAR     53  51  94 W3        30.11R
$$
MNZ037-044-045-052-053-230900-
   East Central Minnesota

CITY           SKY/WX    TMP DP  RH WIND       PRES   REMARKS
PRINCETON      CLEAR     52  48  87 W3        30.07S
MORA           CLEAR     50  46  87 CALM      30.08R
CAMBRIDGE      CLEAR     52  45  76 CALM      30.07R
RUSH CITY      MOCLDY    49  47  93 CALM      30.06R
MOOSE LAKE     CLEAR     48  46  93 CALM      30.03R
HINCKLEY       FAIR      52  50  93 W3        30.06R
CLOQUET        CLEAR     52  46  82 W6        30.03S
MCGREGOR       CLEAR     54  50  87 NW3       30.06R
$$
MNZ071>073-080-081-089-090-097-098-230900-
   Southwest Minnesota

CITY           SKY/WX    TMP DP  RH WIND       PRES   REMARKS
MONTEVIDEO     CLEAR     52  48  87 NW7       30.12R
GRANITE FALLS  CLEAR     52  50  92 W5        30.13S
CANBY          CLEAR     54  49  83 CALM      30.14S
MARSHALL       CLEAR     53  49  86 CALM      30.13S
REDWOOD FALLS  CLEAR     54  49  83 W6        30.11R
OLIVIA         CLEAR     50  46  87 W3        30.11S
PIPESTONE      CLEAR     52  48  87 CALM      30.15S
WINDOM         CLEAR     52  48  87 CALM      30.14S
WORTHINGTON    CLEAR     50  47  89 SW7       30.16R
JACKSON        CLEAR     52  48  87 CALM      30.15S
TRACY          CLEAR     55  51  85 SW7       30.13F
SLAYTON        CLEAR     52  43  73 W3        30.15F
$$
MNZ065>067-074>077-082>085-091>093-230900-
   South Central Minnesota

CITY           SKY/WX    TMP DP  RH WIND       PRES   REMARKS
MANKATO        CLEAR     54  50  86 W3        30.11R
NEW ULM        CLEAR     52  48  87 W5        30.11S
ST JAMES       CLEAR     52  48  87 SW3       30.13S
FAIRMONT       CLEAR     54  50  86 W3        30.13S
GLENCOE        PTCLDY    56  53  91 W5        30.09S
FARIBAULT      CLEAR     55  52  88 W7        30.09S
OWATONNA       CLEAR     52  48  87 CALM      30.10R
WASECA         CLEAR     50  46  87 CALM      30.11S
ALBERT LEA     CLEAR     57  52  82 W5        30.11R
$$
MNZ078>079-086>088-094>096-230900-
   Southeast Minnesota

CITY           SKY/WX    TMP DP  RH WIND       PRES   REMARKS
ROCHESTER      CLEAR     52  49  89 W10       30.09R
RED WING       CLEAR     54  50  87 CALM      30.06R
STANTON        CLEAR     53  49  88 CALM      30.07R
DODGE CENTER   CLEAR     54  48  82 W7        30.09S
WINONA         CLEAR     59  50  72 W5        30.06R
AUSTIN         CLEAR     55  48  76 W8        30.09S
PRESTON        CLEAR     52  47  83 W9        30.09R
$$
ABBREVIATIONS USED IN REMARKS
   TC - TEMPERATURES IN CELSIUS
  WCI - WIND CHILL INDEX
   HX - HEAT INDEX
  VSB - VISIBILITY
$$




USA.gov is the U.S. government's official web portal to all federal, state and local government web resources and services.